Temp
13 14 15 16 17 18 20 21 22 24 26 25 24 24 25 26 26 25 24 24 24 22 21 19 17 15 14 12 11 10 11 11 11 11 9 9 9 9 9 8 9 9 10 11
12 14 17 17 18 18 19 20 21 23 25 24 24 24 25 26 26 26 26 25 24 23 21 19 16 15 13 12 10 10 10 11 11 9 9 9 9 9 8 8 9 9 10 10
11 15 18 18 18 18 19 20 21 21 24 24 23 22 23 25 26 26 26 25 25 24 22 19 16 14 13 12 10 10 10 11 10 9 9 9 9 9 9 8 9 10 10 10
10 13 15 15 17 18 18 21 22 22 22 21 24 21 24 25 26 26 26 25 25 25 23 20 17 15 13 12 11 10 10 10 10 9 9 9 9 9 8 9 10 9 10 10
10 13 13 15 17 19 18 22 21 21 21 21 21 21 23 25 25 26 26 25 25 24 24 21 18 16 14 12 11 10 10 9 10 9 9 9 9 9 9 9 9 9 9 10
13 14 14 17 19 19 20 20 20 20 20 18 20 21 21 24 25 26 27 27 25 25 24 22 20 17 15 13 12 10 10 10 9 10 9 9 9 9 8 9 9 9 10 10
13 14 16 17 16 18 18 18 17 16 17 17 21 21 21 24 26 26 26 26 26 25 24 23 20 18 16 14 13 11 10 10 10 10 10 9 9 9 9 10 10 9 10 10
12 11 14 17 17 17 17 17 17 15 16 18 22 20 22 25 26 26 26 26 26 25 24 23 21 19 17 15 14 13 10 9 10 9 9 9 9 9 9 9 9 9 9 9
12 13 17 17 17 18 16 14 19 18 18 16 19 23 24 25 25 25 25 25 25 25 24 23 22 20 18 16 14 13 11 10 9 9 9 9 9 9 9 9 9 9 10 10
14 12 16 18 18 18 16 17 15 17 14 14 19 21 22 24 24 25 25 25 25 24 24 23 22 21 19 18 16 14 13 11 10 10 9 9 9 9 9 9 9 9 10 10
15 14 14 16 17 16 17 16 16 16 18 16 16 18 19 21 22 23 23 23 23 23 23 23 23 22 20 19 17 15 14 13 12 11 10 10 10 10 9 9 9 10 10 10
13 15 13 14 17 18 17 17 17 15 15 17 17 18 21 21 21 21 21 22 23 23 23 23 22 22 21 20 18 16 15 14 13 12 12 11 11 10 10 11 11 10 10 10
11 13 12 14 16 16 16 16 17 17 15 11 14 16 22 22 21 21 21 21 21 21 21 21 21 21 21 20 19 18 16 15 14 13 13 12 12 11 12 12 11 11 10 10
11 10 12 13 13 11 11 17 16 16 11 12 12 16 16 18 20 21 21 20 19 20 20 18 18 17 18 20 19 19 18 16 15 14 14 13 12 13 14 14 12 11 11 11
9 8 11 13 14 14 15 15 16 16 13 12 16 17 16 16 16 21 21 20 19 18 17 16 16 16 16 16 17 18 18 17 16 15 14 14 13 12 11 11 12 12 11 10
9 8 9 11 14 15 15 15 12 13 18 18 16 14 18 18 21 20 19 18 18 17 15 15 15 15 14 14 15 15 16 18 17 16 15 15 14 13 12 11 11 11 11 11
9 8 8 10 12 13 13 15 15 14 18 18 16 18 18 19 19 19 18 17 16 15 14 14 13 13 13 12 13 14 15 16 17 17 17 15 14 14 13 12 11 11 11 11
10 10 8 8 8 9 15 17 17 17 17 18 18 18 18 18 18 17 16 15 14 14 13 12 12 11 11 11 11 12 14 15 16 17 17 16 15 15 14 13 12 12 11 11
11 10 8 7 9 10 13 16 16 16 16 18 18 18 18 17 16 16 15 14 13 13 12 11 10 9 8 8 9 10 13 14 15 16 17 18 17 15 14 14 13 12 11 11
11 11 9 9 9 8 14 16 16 17 14 17 17 16 16 15 14 13 13 13 13 12 10 9 8 7 6 7 8 8 9 10 11 12 13 15 17 17 15 14 14 13 12 11
9 9 8 8 9 12 15 16 15 13 11 13 14 13 13 13 13 13 13 13 12 10 8 7 6 5 3 5 6 5 5 7 9 10 12 14 16 16 16 15 14 13 12 12
9 8 8 9 9 9 15 15 13 11 10 10 11 12 11 11 12 11 11 10 9 8 6 4 3 3 4 5 4 3 4 4 6 7 7 10 12 14 15 15 14 13 13 12
6 11 10 11 10 14 14 12 11 11 10 9 10 10 10 10 10 10 8 7 5 3 2 1 0 0 2 3 3 2 1 3 4 5 5 6 7 10 11 13 13 13 12 11
6 9 11 10 12 14 11 10 10 9 9 9 8 8 8 7 7 7 6 3 0 -1 -2 -3 -2 -2 -1 -1 0 -0 -1 -1 1 3 2 3 4 6 7 8 8 8 9 9
7 5 10 10 10 7 6 7 8 8 7 6 6 5 5 4 4 3 0 -2 -3 -4 -3 -3 -3 -4 -3 -3 -2 -2 -2 -2 -1 -0 -1 -1 -1 -0 1 3 3 5 3 4
10 6 7 8 7 6 5 6 6 5 4 3 3 3 2 2 1 -1 -3 -4 -5 -5 -5 -4 -4 -4 -5 -5 -4 -4 -3 -4 -4 -2 -3 -4 -5 -5 -7 -5 -4 -5 -2 -2
Height
1448 1448 1441 1441 1441 1438 1429 1421 1415 1402 1396 1398 1402 1407 1404 1403 1406 1407 1411 1416 1417 1421 1428 1435 1440 1443 1441 1443 1444 1447 1449 1451 1453 1455 1457 1460 1463 1465 1471 1481 1490 1498 1505 1510
1447 1437 1435 1435 1432 1434 1431 1426 1419 1406 1397 1402 1401 1404 1401 1398 1397 1400 1402 1407 1412 1416 1422 1430 1435 1440 1441 1440 1443 1445 1447 1449 1452 1455 1458 1461 1464 1470 1476 1484 1489 1497 1503 1510
1446 1431 1431 1428 1428 1432 1427 1424 1418 1415 1401 1397 1405 1410 1403 1394 1391 1394 1395 1401 1404 1409 1415 1423 1430 1435 1438 1438 1440 1443 1445 1449 1451 1455 1460 1464 1467 1473 1478 1483 1491 1497 1502 1507
1446 1440 1433 1436 1425 1426 1424 1411 1409 1411 1411 1418 1398 1418 1391 1385 1386 1386 1389 1395 1401 1404 1409 1415 1424 1429 1433 1435 1437 1440 1444 1447 1451 1455 1459 1463 1467 1470 1476 1482 1488 1495 1501 1506
1444 1434 1438 1430 1424 1420 1419 1405 1407 1407 1411 1412 1409 1412 1397 1379 1379 1378 1380 1386 1392 1398 1403 1409 1417 1425 1430 1434 1433 1436 1441 1445 1449 1453 1457 1462 1467 1471 1477 1481 1486 1491 1498 1503
1433 1433 1432 1420 1413 1413 1412 1407 1409 1410 1410 1422 1412 1411 1402 1388 1376 1371 1372 1378 1384 1391 1398 1405 1412 1420 1426 1430 1431 1434 1437 1441 1445 1450 1455 1460 1464 1468 1474 1479 1483 1488 1493 1498
1430 1427 1420 1419 1418 1413 1414 1414 1424 1432 1425 1423 1402 1404 1396 1377 1369 1371 1372 1377 1380 1387 1394 1401 1408 1415 1422 1425 1427 1430 1433 1437 1441 1446 1451 1456 1461 1466 1470 1475 1479 1484 1488 1493
1429 1434 1419 1411 1411 1413 1413 1413 1416 1433 1427 1413 1389 1396 1384 1370 1368 1370 1374 1378 1380 1386 1393 1398 1404 1410 1417 1421 1424 1427 1430 1433 1437 1441 1446 1451 1456 1461 1465 1470 1474 1479 1483 1488
1425 1415 1404 1404 1408 1407 1416 1420 1400 1404 1410 1420 1398 1374 1367 1363 1369 1372 1375 1377 1381 1385 1390 1396 1401 1406 1412 1417 1420 1423 1426 1429 1432 1436 1440 1444 1449 1454 1458 1464 1469 1474 1479 1483
1414 1422 1401 1397 1400 1403 1407 1409 1418 1411 1432 1433 1393 1375 1381 1369 1371 1372 1375 1378 1381 1383 1388 1392 1397 1402 1406 1412 1417 1421 1424 1427 1428 1432 1435 1438 1443 1448 1451 1457 1460 1466 1471 1476
1409 1414 1410 1398 1394 1401 1404 1409 1415 1415 1406 1414 1414 1401 1383 1379 1375 1377 1380 1380 1384 1387 1391 1394 1395 1397 1400 1405 1410 1415 1420 1424 1427 1427 1430 1432 1436 1441 1445 1448 1451 1455 1461 1465
1413 1404 1408 1407 1393 1391 1395 1397 1403 1415 1415 1403 1404 1395 1378 1383 1384 1384 1385 1385 1388 1391 1393 1394 1397 1398 1400 1402 1406 1409 1414 1421 1423 1424 1425 1429 1431 1435 1437 1440 1444 1448 1452 1457
1423 1407 1411 1401 1396 1395 1396 1396 1392 1400 1413 1426 1415 1409 1380 1380 1385 1388 1389 1388 1392 1393 1396 1396 1397 1398 1399 1403 1406 1408 1408 1411 1419 1421 1420 1421 1423 1424 1425 1429 1435 1440 1445 1449
1425 1418 1409 1403 1402 1412 1411 1388 1395 1397 1420 1418 1416 1399 1397 1392 1389 1388 1391 1393 1397 1398 1400 1400 1399 1399 1401 1402 1402 1405 1407 1407 1410 1416 1417 1416 1415 1417 1418 1422 1426 1431 1433 1437
1425 1425 1410 1399 1394 1392 1393 1393 1385 1391 1405 1412 1398 1393 1397 1402 1396 1390 1391 1396 1402 1404 1406 1408 1406 1403 1402 1401 1402 1405 1403 1404 1404 1407 1412 1410 1411 1413 1416 1417 1418 1421 1425 1429
1425 1426 1420 1406 1395 1388 1388 1387 1400 1398 1381 1382 1392 1402 1394 1400 1390 1391 1395 1398 1402 1406 1410 1411 1410 1407 1405 1401 1399 1398 1400 1401 1399 1399 1400 1403 1408 1409 1408 1410 1412 1416 1416 1418
1424 1425 1426 1412 1404 1396 1396 1386 1388 1397 1377 1380 1391 1386 1386 1385 1390 1394 1398 1399 1404 1408 1410 1410 1411 1410 1409 1406 1402 1398 1395 1394 1397 1395 1394 1396 1398 1400 1400 1401 1405 1405 1406 1410
1420 1420 1428 1422 1419 1411 1384 1375 1374 1378 1378 1380 1381 1383 1387 1390 1394 1398 1400 1405 1409 1410 1410 1411 1411 1410 1409 1405 1401 1397 1394 1392 1391 1392 1390 1389 1389 1390 1392 1393 1393 1394 1396 1398
1414 1417 1424 1421 1411 1404 1390 1380 1381 1381 1384 1379 1382 1387 1389 1394 1398 1403 1406 1410 1411 1412 1411 1409 1409 1407 1405 1400 1397 1395 1391 1388 1386 1384 1384 1383 1380 1380 1383 1385 1383 1384 1389 1389
1404 1409 1416 1412 1413 1412 1382 1381 1381 1380 1391 1381 1386 1391 1394 1397 1405 1413 1413 1411 1412 1412 1410 1409 1407 1405 1400 1396 1392 1388 1386 1382 1379 1377 1374 1372 1374 1370 1369 1372 1376 1378 1381 1384
1399 1405 1409 1412 1411 1395 1382 1379 1384 1393 1405 1395 1396 1401 1403 1406 1409 1410 1408 1409 1409 1408 1409 1407 1404 1400 1395 1391 1388 1384 1381 1378 1375 1371 1368 1365 1362 1362 1360 1362 1365 1369 1371 1372
1391 1402 1404 1406 1406 1404 1383 1383 1389 1399 1402 1405 1409 1407 1407 1409 1410 1410 1409 1409 1409 1410 1409 1407 1404 1401 1397 1391 1384 1380 1377 1373 1371 1368 1363 1358 1356 1354 1352 1353 1354 1356 1360 1363
1402 1388 1392 1392 1392 1384 1383 1388 1395 1400 1405 1410 1411 1411 1409 1413 1414 1412 1412 1411 1411 1411 1409 1406 1403 1400 1396 1391 1385 1379 1374 1370 1366 1361 1359 1354 1352 1350 1348 1344 1345 1348 1352 1356
1398 1391 1384 1391 1384 1385 1391 1395 1397 1403 1406 1411 1413 1412 1414 1416 1416 1416 1415 1413 1412 1411 1409 1407 1403 1399 1395 1391 1387 1382 1375 1369 1363 1357 1355 1352 1349 1347 1346 1343 1340 1343 1344 1349
1396 1398 1386 1385 1390 1396 1400 1399 1399 1404 1409 1412 1413 1415 1416 1417 1417 1416 1415 1414 1414 1412 1409 1406 1403 1398 1394 1390 1385 1380 1374 1368 1364 1354 1355 1353 1350 1347 1345 1342 1340 1338 1343 1346
1390 1394 1392 1392 1394 1397 1403 1403 1406 1410 1412 1413 1413 1415 1416 1416 1416 1415 1415 1415 1413 1411 1408 1405 1402 1397 1393 1391 1386 1380 1374 1369 1366 1356 1358 1355 1355 1352 1355 1348 1343 1348 1342 1346
Wind_Speed
16 13 17 21 18 20 21 22 21 16 17 15 17 15 16 16 17 15 19 17 15 19 18 19 18 15 15 13 17 18 17 15 14 12 14 16 30 39 42 43 40 32 35 36
13 20 19 18 18 21 24 23 22 22 15 3 9 13 15 15 15 18 15 19 16 17 21 21 20 18 18 15 15 19 17 17 14 14 24 34 36 38 42 38 40 34 37 37
18 14 16 18 18 20 23 23 18 22 18 14 7 16 19 18 19 19 17 13 18 20 24 26 23 21 20 19 19 23 22 19 14 15 26 29 36 39 42 39 41 38 33 34
12 20 14 19 23 20 22 22 22 20 17 14 14 12 14 16 16 14 16 15 14 13 24 29 27 24 24 22 20 21 24 24 19 19 26 34 37 39 45 49 45 39 36 37
4 9 15 23 19 23 23 18 16 15 16 16 19 12 12 13 12 19 16 22 22 21 20 29 30 26 23 23 23 22 27 26 26 25 29 34 34 37 46 46 45 45 40 39
18 14 21 20 17 22 20 16 17 14 13 14 17 16 12 13 13 11 8 11 24 24 19 23 28 26 25 22 25 23 27 29 31 30 30 35 35 39 46 51 49 45 44 44
17 20 21 18 18 17 16 14 9 7 10 10 16 14 11 16 9 4 3 3 7 22 19 21 30 29 28 27 31 25 27 33 36 34 32 33 36 39 42 50 56 54 49 47
5 11 21 15 18 15 18 15 7 8 7 13 19 10 14 18 14 5 3 5 8 15 14 17 25 29 30 31 31 27 29 29 36 36 35 35 37 38 41 41 53 59 55 47
3 8 10 16 16 15 14 14 17 15 7 5 9 18 15 6 7 5 6 9 5 10 13 12 17 27 30 32 33 30 27 27 29 37 38 39 37 36 38 39 43 55 54 53
6 6 15 15 18 17 17 15 10 5 5 6 7 5 8 9 8 9 6 7 7 7 11 18 17 23 29 30 31 32 29 28 29 29 38 42 42 41 41 39 43 45 49 55
14 11 6 14 12 16 13 15 11 13 10 5 2 4 12 12 11 7 11 16 17 14 8 5 9 19 27 30 31 32 32 29 30 32 29 38 43 41 41 40 44 43 42 50
12 6 10 18 18 14 16 14 18 7 9 12 5 1 15 6 8 8 10 13 12 8 12 6 3 2 8 26 29 31 31 32 32 33 32 30 35 43 45 45 43 42 42 42
10 6 9 9 8 13 17 19 12 14 8 6 5 5 9 11 10 8 8 15 18 19 17 18 19 2 6 12 21 27 31 32 33 33 36 37 34 36 42 44 49 47 47 46
6 8 10 9 4 6 7 16 20 16 6 5 8 4 10 13 8 5 11 15 17 20 19 23 26 28 27 4 15 22 27 32 32 34 36 39 42 40 39 40 43 46 47 48
3 5 12 15 17 16 12 15 13 9 13 9 12 13 7 6 16 5 7 13 13 13 16 18 22 25 27 24 20 11 23 29 33 34 37 43 43 43 41 41 44 45 47 50
5 3 12 11 9 9 9 10 7 17 15 5 9 7 11 21 13 11 13 12 13 13 17 15 17 20 25 27 27 24 24 25 30 35 38 41 40 41 45 45 44 43 46 48
2 3 4 3 8 9 8 11 14 16 8 5 9 5 11 5 6 9 11 12 16 16 17 19 20 21 22 24 27 28 27 21 19 31 37 40 40 41 44 46 45 47 49 47
13 9 3 4 6 5 4 2 8 12 7 11 12 4 2 8 10 8 17 16 14 16 17 19 20 22 22 20 17 20 21 22 25 26 33 37 40 43 45 44 46 49 50 49
15 12 4 4 4 8 10 4 2 3 6 11 3 6 8 9 5 11 16 13 14 17 20 22 21 19 20 22 25 26 24 21 22 22 26 31 39 42 43 44 47 47 44 45
17 14 10 7 4 3 7 3 2 1 2 10 11 9 9 10 3 6 7 8 13 15 21 23 23 20 21 27 30 31 28 23 22 24 26 22 29 41 43 44 45 43 41 40
15 12 13 11 8 6 6 3 3 6 5 15 16 14 13 7 8 14 10 12 14 17 20 23 24 25 27 29 29 29 30 28 27 25 27 29 27 27 39 39 39 39 39 42
13 10 8 10 9 12 3 4 5 12 18 13 11 11 13 13 15 17 19 18 19 18 19 20 21 22 26 32 34 32 31 32 31 30 28 27 26 25 29 33 38 39 41 43
3 9 7 9 8 6 7 18 16 17 17 10 10 12 11 10 12 13 16 16 17 17 16 18 19 21 25 28 29 31 33 33 33 29 25 28 28 25 23 30 37 40 39 37
4 15 10 2 8 8 16 13 18 14 14 11 11 12 11 10 11 11 12 13 15 15 18 19 21 21 25 26 27 26 27 28 26 24 21 19 15 17 21 20 23 26 28 31
4 4 4 7 3 11 19 9 18 17 14 13 12 13 12 10 10 11 12 13 13 15 18 18 19 20 23 24 24 23 23 22 21 17 12 9 4 1 6 11 13 19 20 23
4 3 2 4 9 17 11 17 16 15 13 13 12 12 12 12 11 10 9 10 12 14 16 17 18 19 21 21 21 20 20 17 13 12 8 11 15 21 25 25 27 22 19 18
Wind_Direction
228 229 229 221 226 254 270 270 277 259 241 249 210 237 259 237 240 212 202 218 237 186 190 191 191 192 216 223 193 211 198 200 200 197 200 200 169 166 179 169 163 173 192 190
275 235 229 232 237 236 254 263 272 274 279 202 278 258 267 256 239 231 216 197 213 193 171 176 189 193 195 218 201 202 206 196 190 180 181 171 176 162 161 165 171 179 193 192
249 263 229 241 236 245 249 252 254 264 279 274 225 266 262 260 250 236 210 231 210 198 174 175 185 194 194 207 208 204 204 196 193 178 181 175 169 165 170 170 175 191 193 195
236 269 260 254 241 242 247 243 243 258 266 261 236 260 272 230 236 222 226 201 225 215 180 177 185 194 198 202 211 203 199 199 195 187 187 186 182 184 179 174 182 190 197 191
231 246 244 243 245 223 254 255 257 257 253 265 265 270 269 288 247 215 202 200 207 205 195 177 184 192 205 193 207 208 199 195 196 193 194 196 198 198 187 184 187 191 195 195
258 244 253 272 238 260 279 250 257 258 258 244 248 258 264 260 248 244 191 199 199 189 193 179 184 189 195 198 208 208 200 196 198 196 199 199 200 198 194 194 197 195 198 206
244 255 253 248 252 244 259 266 227 229 237 245 245 245 237 264 288 9 111 155 185 167 173 178 173 182 191 195 202 205 203 199 199 201 204 205 205 206 206 205 203 201 202 206
253 246 246 237 238 225 236 256 228 201 233 242 229 233 234 229 254 63 333 231 127 140 163 183 182 187 192 196 203 214 205 203 202 202 208 210 208 211 213 215 212 208 208 210
229 249 217 229 243 211 220 255 255 263 266 294 273 220 241 163 131 167 203 191 169 161 169 181 190 190 193 198 201 214 207 206 209 206 205 208 207 214 218 218 220 217 217 215
235 275 287 227 202 227 207 233 261 256 230 236 266 192 206 209 168 198 150 173 171 139 172 187 192 196 195 201 206 210 217 209 221 214 210 210 210 215 221 221 222 223 225 222
247 238 272 287 205 216 210 229 225 252 230 236 240 250 7 31 55 67 55 59 64 59 58 4 209 199 200 199 202 212 211 211 213 233 223 213 213 211 217 219 221 228 226 226
309 265 234 239 257 212 263 251 220 229 228 243 253 269 153 171 64 34 28 28 71 28 34 87 21 298 221 196 200 211 216 210 214 223 239 228 218 214 219 221 224 224 224 227
354 253 251 260 242 256 216 246 252 230 241 226 258 231 231 125 127 90 31 25 24 20 11 3 15 50 189 205 208 211 220 223 215 216 226 238 233 223 221 223 223 226 224 225
350 276 271 261 205 353 296 220 216 223 230 215 227 163 343 341 333 73 75 54 24 8 17 15 6 2 11 285 220 222 226 230 231 219 220 230 239 237 229 227 226 225 224 226
82 290 315 295 303 209 219 251 252 219 228 238 235 245 266 293 287 245 47 50 33 18 22 11 358 352 350 350 358 307 233 232 241 235 225 228 231 237 236 234 231 231 229 228
139 277 323 305 285 278 273 208 238 284 211 228 188 307 238 234 248 45 32 18 8 21 27 7 1 360 350 343 334 329 347 242 233 239 237 235 232 233 232 229 227 227 233 232
162 270 332 271 314 301 267 252 190 220 260 232 246 256 29 28 39 41 13 9 41 20 12 12 6 1 350 338 335 328 315 316 302 241 245 238 234 236 236 235 228 230 231 230
267 274 260 289 313 228 233 33 258 246 223 241 258 327 154 39 29 10 55 52 32 17 19 12 6 356 352 344 327 312 311 296 302 300 250 246 239 236 239 237 231 237 235 230
227 234 231 251 235 307 302 222 280 205 233 253 166 136 99 73 4 57 46 38 27 17 13 9 359 350 342 327 325 324 319 296 285 295 296 266 247 243 239 239 238 236 232 231
219 213 221 226 235 261 227 143 169 329 125 83 86 65 50 50 69 84 354 12 12 14 14 2 356 350 338 337 337 336 331 316 293 288 290 294 286 248 238 237 239 239 235 235
202 200 213 226 243 251 274 171 141 202 79 44 46 48 43 25 350 331 1 16 6 21 9 344 349 349 342 341 343 342 337 323 302 291 284 277 268 269 247 236 237 236 232 229
189 191 205 225 244 249 245 269 176 92 66 56 34 58 49 17 6 7 17 25 25 14 3 350 346 346 339 344 343 342 338 331 320 300 291 285 287 261 236 231 231 226 226 226
245 208 200 190 214 298 91 101 90 92 98 59 42 35 31 23 5 5 7 18 20 12 354 349 343 341 338 347 346 342 340 334 327 315 301 294 284 277 249 232 228 225 224 223
302 300 226 309 254 203 111 113 99 89 80 66 49 39 33 15 7 7 11 19 12 2 355 351 348 347 346 349 347 343 341 338 330 324 318 299 282 267 257 235 212 214 211 212
214 349 259 228 89 44 52 55 79 75 67 62 57 52 41 35 29 28 30 15 11 358 358 360 2 2 1 357 355 351 352 350 338 345 335 332 326 108 187 178 178 184 182 194
352 140 248 77 45 103 100 67 64 67 59 53 59 55 51 48 49 48 38 23 15 8 9 13 17 17 17 15 14 13 9 10 9 27 41 72 81 86 80 97 99 93 120 122